CZ-6A DEB, 56271

Orbit data source: Space-Track

CZ-6A DEB, 56271 is space debris in SSO originally from a launch on Fri, 11 Nov 2022 UTC launched from the Taiyaun Space Center, China (TSC). Debris objects in space refer to the collection of defunct objects orbiting the Earth. Examples of debris include non-operational satellites, rocket bodies, and fragments generated from explosions, collisions, or faulty payload assembly.

Loading next visibility...
Identifier
56271, 2022-151ACP
Orbit
SSO
Country
Flag of CNCN / PRC
Related business
Manufacturer
SAST
Mission
Spacecraft
Bus & Motor
Unknown
Mass
Unknown
Launch date (UTC)
2022-11-11 (4 years ago)
Launch vehicle
Unknown
Launch site
Taiyaun Space Center, China (TSC)
Object type
Payload
Rocket body
Debris
Shape & HBR
Unknown shape, 0.1 m
Radar Cross Section
Medium (>0.1 m² and <1 m²)

Expand to show TLE details & history
Last TLE update: 1 day ago

TLE from 1 day ago
0 CZ-6A DEB
1 56271U 22151ACP 26235.10036523  .00017683  00000-0  23110-2 0  9994
2 56271  98.5335 289.4020 0047405  64.3899 296.2199 14.79729790181979
Epoch: 2026-08-23T02:24Z
TLE epoch observation values (Epoch: 2026-08-23T02:24:31.555Z)
Latitude
0.00002°
Longitude
-78.13075°
Altitude
618.624 km
Speed
7.557 km/s
True Right ascension
19h 17m 36s
True Declination
0° 00' 00"
Sunlit
Object was in full shadow at epoch
Visualization orbit readout
Latitude
Unknown
Longitude
Unknown
Altitude
Unknown
Speed
Unknown
Apparent Right ascension
Unknown
Apparent Declination
Unknown
Sunlit
N/A
Visualization observer readout
Local Sidereal Time
00:45:50
Azimuth
Unknown
Elevation
Unknown
Doppler factor
Unknown
Orbital elements
Apogee altitude
660.457 km
Perigee altitude
594.039 km
Semi-major axis
7,005.385 km
Eccentricity
0.00474
Inclination
98.5335°
RAAN
289.402°
Arg. of periapsis
64.3899°
True anomaly
295.7313°
Mean anomaly
296.2199°
Eccentric anomaly
295.97573°
Mean motion
3.70165 °/min
Orbital period
97.25 mins
BSTAR
0.002311
Loading maneuver chart data...
Computing Atmospheric mass density...
Loading historical data...
Loading historical data...
Loading historical data...
Loading historical data...
Loading historical data...
Loading historical data...
Loading historical data...

Documentation

Showing up to 5 results
|